Simultaneous Nadir Overpasses (SNOs) Predictions

Prediction of SNOs between GOES-16 and METOP-B Satellite Orbit:

Table of predicted SNOs for the next 14.0 days since TLE Epoch: 8/24/2024
Index Date Time (GOES-16) GOES-16 Lat,Lon METOP-B Lat,Lon Distance(km) Time Diff (sec)
1 08/25/2024 02:03:52 0.03, -75.20 0.99, -70.88 492.43 80
2 08/26/2024 14:20:05 -0.03, -75.22 0.04, -75.46 27.82 80
3 08/29/2024 02:18:26 0.03, -75.22 0.03, -75.08 15.91 80
4 08/31/2024 14:19:20 -0.03, -75.26 -0.17, -74.68 65.92 80
5 09/02/2024 02:38:21 0.03, -75.27 -0.88, -79.29 457.93 80
6 09/03/2024 02:15:02 0.03, -75.29 0.28, -74.31 112.27 80
7 09/04/2024 14:36:33 -0.03, -75.33 0.78, -78.88 405.13 80
8 09/05/2024 14:13:14 -0.03, -75.35 -0.33, -73.89 165.54 80
9 09/07/2024 02:34:55 0.03, -75.37 -0.64, -78.51 356.92 80
